{"data":{"norad_id":63203,"intl_designator":"2025-048W","name":"STARLINK-32930","alt_names":[],"object_type":"PAYLOAD","status":"ACTIVE","operator":null,"country":"US","launch_date":"2025-03-13","launch_site_code":"AFETR","launch_vehicle":null,"mission":null,"orbit_class":"UNKNOWN","rcs_meters":null,"size_class":null,"mass_kg":null,"dimensions":null,"purposes":["comms"],"wikipedia_slug":null,"has_3d_model":false,"image_url":null,"decayed_at":null,"tle_current":{"epoch":"2026-09-21T17:57:14.334048Z","epoch_age_seconds":54463,"freshness":"FRESH","line1":"1 63203U 25048W   26264.74808257  .00015266  00000+0  56288-3 0  9995","line2":"2 63203  43.0060  58.3466 0001744 284.8658  75.2000 15.27594293 87071","mean_motion":15.27594293,"eccentricity":0.0001744,"inclination_deg":43.006,"raan_deg":58.3466,"arg_perigee_deg":284.8658,"mean_anomaly_deg":75.2,"bstar":0.00056288,"rev_number":8707,"period_min":94.265866702868,"perigee_km":481.80971459831,"apogee_km":484.20288138065,"semimajor_km":6861.1432979895,"source":"CELESTRAK","updated_at":"2026-09-22T09:00:49.798806Z"}}}